This is the latest recevied weather packets stored in our database for station/object OE5HCE. If no packets are shown the sender has not sent any weather packets the latest 10 day(s).
| Time | Temp. | Humidity | Pressure | Rain* | Wind** | Luminosity | Snow |
|---|---|---|---|---|---|---|---|
| 1787646643 | 18.33° C | 68% | 1010.9 hPa | 0 mm | - | 195 W/m² | - |
| 1787645743 | 17.78° C | 67% | 1011 hPa | 0 mm | - | 197 W/m² | - |
| 1787644845 | 17.78° C | 67% | 1010.9 hPa | 0 mm | - | 181 W/m² | - |
| 1787643950 | 17.78° C | 68% | 1010.8 hPa | 0 mm | - | 172 W/m² | - |
| 1787643040 | 17.22° C | 68% | 1010.7 hPa | 0 mm | - | 179 W/m² | - |
| 1787642153 | 17.22° C | 68% | 1010.6 hPa | 0 mm | - | 186 W/m² | - |
| 1787641244 | 16.67° C | 69% | 1010.6 hPa | 0 mm | - | 188 W/m² | - |
| 1787640355 | 16.67° C | 70% | 1010.6 hPa | 0 mm | - | 146 W/m² | - |
| 1787639451 | 16.11° C | 70% | 1010.5 hPa | 0 mm | - | 111 W/m² | - |
| 1787638529 | 16.11° C | 69% | 1010.7 hPa | 0 mm | - | 81 W/m² | - |
| 1787637630 | 16.11° C | 69% | 1010.5 hPa | 0 mm | - | 70 W/m² | - |
| 1787636728 | 16.11° C | 69% | 1010.5 hPa | 0 mm | - | 76 W/m² | - |
| 1787635827 | 16.11° C | 70% | 1010.5 hPa | 0 mm | - | 77 W/m² | - |
| 1787634934 | 15.56° C | 70% | 1010.5 hPa | 0 mm | - | 97 W/m² | - |
| 1787634030 | 15° C | 71% | 1010.7 hPa | 0 mm | - | 54 W/m² | - |
| 1787633120 | 15° C | 72% | 1010.8 hPa | 0 mm | - | 35 W/m² | - |
| 1787632217 | 15° C | 71% | 1010.6 hPa | 0 mm | - | 16 W/m² | - |
| 1787631314 | 15° C | 70% | 1010.7 hPa | 0 mm | - | 5 W/m² | - |
| 1787630413 | 15.56° C | 70% | 1011.1 hPa | 0 mm | - | 0 W/m² | - |
| 1787629515 | 15.56° C | 69% | 1010.8 hPa | 0 mm | - | 0 W/m² | - |
| 1787628610 | 15.56° C | 70% | 1010.4 hPa | 0 mm | - | 0 W/m² | - |
| 1787627708 | 15.56° C | 70% | 1010.6 hPa | 0 mm | - | 0 W/m² | - |
| 1787626821 | 15.56° C | 70% | 1010.9 hPa | 0 mm | - | 0 W/m² | - |
| 1787625906 | 16.11° C | 70% | 1010.8 hPa | 0 mm | - | 0 W/m² | - |
| 1787625004 | 16.11° C | 70% | 1011.1 hPa | 0 mm | - | 0 W/m² | - |
* Rain latest hour (hover to see other rain measurements)
** Current wind speed in m/s (hover to see current wind gust speed)